Weather History for KCDC - July, 2013

Change the Weather History Date:

Tuesday, July 30, 2013

  Actual Average Record
Temperature  
Mean Temperature 71 °F 74 °F  
Max Temperature 87 °F 90 °F 98 °F (1978)
Min Temperature 55 °F 57 °F 47 °F (1950)
Degree Days  
Heating Degree Days 0 0  
Month to date heating degree days 0 0  
Since 1 June heating degree days 11 76  
Since 1 July heating degree days 0 0  
Cooling Degree Days 6 9  
Month to date cooling degree days 294 246  
Year to date cooling degree days 447 347  
Since 1 June cooling degree days 445 339  
Growing Degree Days 20 (Base 50)    
Moisture  
Dew Point 42 °F    
Average Humidity 45    
Maximum Humidity 72    
Minimum Humidity 18    
Precipitation  
Precipitation 0.00 in 0.04 in 0.74 in (1983)
Month to date precipitation 5.25 0.80  
Year to date precipitation 9.32 6.37  
Sea Level Pressure  
Sea Level Pressure 30.06 in    
Wind  
Wind Speed 7 mph (SSW)    
Max Wind Speed 18 mph    
Max Gust Speed 26 mph    
Visibility 10 miles    
Events      
T = Trace of Precipitation, MM = Missing Value Source: NWS Daily Summary

Daily Weather History Graph

Daily Weather History Graph

Search for Another Location

Airport or City:

Trip Planner

Search our weather history database for the weather conditions in past years. The results will help you decide how hot, cold, wet, or windy it might be!

Date:

Astronomy

Jul. 30, 2013 Rise Set
Actual Time 6:34 AM MDT 8:42 PM MDT
Civil Twilight 6:05 AM MDT 9:11 PM MDT
Nautical Twilight 5:29 AM MDT 9:47 PM MDT
Astronomical Twilight 4:50 AM MDT 10:25 PM MDT
Moon 12:54 AM MDT (7/30) 3:06 PM MDT (7/30)
Length of Visible Light 15h 06m
Length of Day
14h 07m
Last Quarter, 40% of the Moon is Illuminated
Jul 30
Last Quarter
Aug 6
New
Aug 14
First Quarter
Aug 20
Full
Aug 28
Last Quarter

Hourly Weather History & Observations

Time (MDT) Temp. Dew Point Humidity Pressure Visibility Wind Dir Wind Speed Gust Speed Precip Events Conditions
12:53 AM 62.1 °F 44.1 °F 52% 30.01 in 10.0 mi South 5.8 mph - N/A   Clear
1:53 AM 61.0 °F 43.0 °F 52% 30.01 in 10.0 mi SSW 5.8 mph - N/A   Clear
2:53 AM 60.1 °F 46.0 °F 60% 30.03 in 10.0 mi Calm Calm - N/A   Clear
3:53 AM 61.0 °F 44.1 °F 54% 30.02 in 10.0 mi Calm Calm - N/A   Partly Cloudy
4:53 AM 55.0 °F 46.9 °F 74% 30.05 in 10.0 mi ESE 3.5 mph - N/A   Clear
5:53 AM 61.0 °F 42.1 °F 50% 30.05 in 10.0 mi Calm Calm - N/A   Clear
6:53 AM 60.1 °F 42.1 °F 51% 30.07 in 10.0 mi SSW 3.5 mph - N/A   Clear
7:53 AM 66.0 °F 44.1 °F 45% 30.08 in 10.0 mi SSE 4.6 mph - N/A   Clear
8:53 AM 72.0 °F 41.0 °F 33% 30.09 in 10.0 mi SSE 3.5 mph - N/A   Clear
9:53 AM 75.9 °F 42.1 °F 30% 30.10 in 10.0 mi WSW 4.6 mph - N/A   Clear
10:53 AM 80.1 °F 39.9 °F 24% 30.11 in 10.0 mi SW 10.4 mph - N/A   Clear
11:53 AM 82.0 °F 39.9 °F 22% 30.10 in 10.0 mi WSW 13.8 mph - N/A   Clear
12:53 PM 82.9 °F 39.9 °F 22% 30.10 in 10.0 mi SW 13.8 mph 21.9 mph N/A   Clear
1:53 PM 84.9 °F 41.0 °F 21% 30.08 in 10.0 mi SSW 12.7 mph 21.9 mph N/A   Clear
2:53 PM 84.9 °F 39.9 °F 20% 30.08 in 10.0 mi South 13.8 mph 25.3 mph N/A   Clear
3:53 PM 86.0 °F 37.0 °F 18% 30.05 in 10.0 mi SSW 16.1 mph 26.5 mph N/A   Clear
4:53 PM 86.0 °F 39.0 °F 19% 30.06 in 10.0 mi WSW 11.5 mph - N/A   Clear
5:53 PM 84.9 °F 39.9 °F 20% 30.03 in 10.0 mi SW 11.5 mph 19.6 mph N/A   Clear
6:53 PM 84.0 °F 37.9 °F 19% 30.03 in 10.0 mi SSW 10.4 mph 20.7 mph N/A   Clear
7:53 PM 82.0 °F 37.9 °F 21% 30.02 in 10.0 mi SSW 9.2 mph - N/A   Clear
8:53 PM 77.0 °F 39.0 °F 25% 30.02 in 10.0 mi South 6.9 mph - N/A   Clear
9:53 PM 70.0 °F 43.0 °F 38% 30.06 in 10.0 mi Calm Calm - N/A   Clear
10:53 PM 70.0 °F 44.1 °F 39% 30.06 in 10.0 mi SE 5.8 mph - N/A   Clear
11:53 PM 69.1 °F 43.0 °F 39% 30.06 in 10.0 mi SE 8.1 mph - N/A   Clear